This is the latest recevied weather packets stored in our database for station/object VK5FR. If no packets are shown the sender has not sent any weather packets the latest 10 day(s).
| Time | Temp. | Humidity | Pressure | Rain* | Wind** | Luminosity | Snow |
|---|---|---|---|---|---|---|---|
| 1778057042 | 14.44° C | 85% | 1021.6 hPa | 0 mm | - | - | - |
| 1778056738 | 14.44° C | 85% | 1021.7 hPa | 0 mm | - | - | - |
| 1778056436 | 14.44° C | 85% | 1021.4 hPa | 0 mm | - | - | - |
| 1778056133 | 14.44° C | 85% | 1021.4 hPa | 0 mm | - | - | - |
| 1778055830 | 14.44° C | 85% | 1021.4 hPa | 0 mm | - | - | - |
| 1778055525 | 15° C | 84% | 1021.1 hPa | 0 mm | - | - | - |
| 1778055224 | 15° C | 83% | 1021.2 hPa | 0 mm | - | - | - |
| 1778054921 | 15° C | 82% | 1021.1 hPa | 0 mm | - | - | - |
| 1778054618 | 15.56° C | 82% | 1021 hPa | 0 mm | - | - | - |
| 1778054316 | 15.56° C | 80% | 1020.8 hPa | 0 mm | - | - | - |
| 1778054013 | 15.56° C | 78% | 1021 hPa | 0 mm | - | - | - |
| 1778053710 | 15.56° C | 78% | 1020.7 hPa | 0 mm | - | - | - |
| 1778053407 | 16.11° C | 79% | 1020.7 hPa | 0 mm | - | - | - |
| 1778053104 | 16.11° C | 79% | 1020.5 hPa | 0 mm | - | - | - |
| 1778052802 | 16.11° C | 79% | 1020.5 hPa | 0 mm | - | - | - |
| 1778052498 | 16.67° C | 79% | 1020.6 hPa | 0 mm | - | - | - |
| 1778052196 | 16.67° C | 78% | 1020.4 hPa | 0 mm | - | - | - |
| 1778051894 | 17.22° C | 76% | 1020.3 hPa | 0 mm | - | - | - |
| 1778051592 | 17.22° C | 72% | 1020.3 hPa | 0 mm | - | - | - |
| 1778051288 | 17.22° C | 72% | 1020.3 hPa | 0 mm | - | - | - |
| 1778050985 | 17.22° C | 72% | 1020.3 hPa | 0 mm | - | - | - |
| 1778050683 | 17.78° C | 70% | 1020.4 hPa | 0 mm | - | - | - |
| 1778050380 | 17.78° C | 67% | 1020.2 hPa | 0 mm | - | - | - |
| 1778050076 | 17.78° C | 67% | 1020.3 hPa | 0 mm | - | - | - |
| 1778049772 | 17.78° C | 67% | 1020.2 hPa | 0 mm | - | - | - |
* Rain latest hour (hover to see other rain measurements)
** Current wind speed in m/s (hover to see current wind gust speed)